Date String (YYYY-MM-DD hh:mm:ss) UTC,Instrument flags,Ambient pressure (hPa),Sample flow (lpm),Bypass flow (lpm),Sample temperature (°C),Ambient temperature (°C),ASC tube jacket temperature (°C),LED temperature (°C),Box temperature (°C),Sample RH (%),Span deviation,Mass concentration (μg/m³),Mass concentration (μg/m³),Mass concentration (μg/m³)
DateTimeUTC,F1_M11,P_M11,Q1_M11,Q2_M11,T1_M11,T2_M11,T3_M11,T4_M11,T5_M11,U1_M11,ZSPAN_M11,X0_M11,X2_M11,X1_M11
2021-08-21 05:00:00,,0827.7,5.00,0.00,29.7,28.8,00.0,38.7,31.5,18.4,0002.7,0020.33,0015.56,0014.96
2021-08-21 05:01:00,,0827.7,4.99,0.00,29.7,28.8,00.0,38.7,31.5,18.3,0002.5,0020.41,0015.61,0015.01
2021-08-21 05:02:00,,0827.7,5.00,0.00,29.7,28.8,00.0,38.7,31.5,18.3,0002.6,0020.84,0015.64,0015.06
2021-08-21 05:03:00,,0827.7,4.99,0.00,29.8,28.9,00.0,38.8,31.6,18.1,0002.6,0021.57,0015.72,0015.14
2021-08-21 05:04:00,,0827.7,4.99,0.00,29.8,28.9,00.0,38.8,31.7,18.0,0002.7,0021.82,0015.76,0015.17
2021-08-21 05:05:00,,0827.7,5.00,0.00,29.8,28.9,00.0,38.8,31.7,17.9,0002.8,0021.43,0015.75,0015.19
2021-08-21 05:06:00,,0827.8,5.00,0.00,29.9,28.9,00.0,38.8,31.7,17.9,0002.9,0021.31,0015.78,0015.24
2021-08-21 05:07:00,,0827.8,5.02,0.00,29.9,29.0,00.0,38.8,31.7,17.9,0002.9,0021.38,0015.85,0015.31
2021-08-21 05:08:00,,0827.7,5.00,0.00,29.9,29.0,00.0,38.9,31.7,17.9,0002.9,0021.49,0015.90,0015.38
2021-08-21 05:09:00,,0827.8,5.00,0.00,29.9,29.0,00.0,38.9,31.7,17.8,0002.8,0022.06,0015.94,0015.42
2021-08-21 05:10:00,,0827.8,5.00,0.00,29.9,29.1,00.0,38.9,31.8,17.8,0002.9,0022.19,0015.97,0015.45
2021-08-21 05:11:00,,0827.8,5.00,0.00,30.0,29.1,00.0,39.0,31.8,17.7,0002.8,0022.33,0015.98,0015.46
2021-08-21 05:12:00,,0827.8,5.00,0.00,30.0,29.1,00.0,39.0,31.8,17.6,0002.7,0022.77,0015.98,0015.46
2021-08-21 05:13:00,,0827.9,4.99,0.00,30.0,29.2,00.0,39.0,31.9,17.7,0002.7,0022.47,0016.01,0015.49
2021-08-21 05:14:00,,0827.9,5.00,0.00,30.0,27.9,00.0,39.0,31.4,17.8,0002.8,0021.94,0016.05,0015.48
2021-08-21 05:15:00,,0827.9,5.00,0.00,29.8,26.3,00.0,38.9,31.0,18.0,0002.8,0021.58,0016.05,0015.51
2021-08-21 05:16:00,,0827.9,5.01,0.00,29.7,26.3,00.0,38.9,31.0,18.1,0002.8,0021.62,0016.08,0015.53
2021-08-21 05:17:00,,0827.8,4.99,0.00,29.6,26.6,00.0,38.9,31.0,18.2,0002.7,0021.65,0016.10,0015.56
2021-08-21 05:18:00,,0827.8,5.00,0.00,29.5,27.0,00.0,38.8,31.1,18.2,0002.6,0021.66,0016.08,0015.53
2021-08-21 05:19:00,,0827.8,5.00,0.00,29.5,27.3,00.0,38.8,31.1,18.3,0002.5,0021.67,0016.09,0015.50
2021-08-21 05:20:00,,0827.7,5.00,0.00,29.5,27.6,00.0,38.8,31.2,18.3,0002.6,0021.26,0016.09,0015.50
2021-08-21 05:21:00,,0827.7,4.99,0.00,29.5,27.8,00.0,38.8,31.3,18.4,0002.5,0021.09,0016.11,0015.51
2021-08-21 05:22:00,,0827.7,5.01,0.00,29.6,28.0,00.0,38.8,31.3,18.3,0002.6,0021.23,0016.14,0015.52
2021-08-21 05:23:00,,0827.9,4.99,0.00,29.6,28.1,00.0,38.8,31.4,18.3,0002.6,0020.86,0016.16,0015.53
2021-08-21 05:24:00,,0827.9,5.01,0.00,29.6,28.3,00.0,38.8,31.4,18.3,0002.6,0020.84,0016.13,0015.48
2021-08-21 05:25:00,,0827.9,4.99,0.00,29.6,28.4,00.0,38.8,31.4,18.3,0002.6,0020.77,0016.07,0015.45
2021-08-21 05:26:00,,0827.9,5.00,0.00,29.6,28.4,00.0,38.8,31.4,18.3,0002.5,0020.95,0016.03,0015.42
2021-08-21 05:27:00,,0827.9,5.00,0.00,29.6,28.5,00.0,38.8,31.4,18.4,0002.2,0021.18,0016.03,0015.41
2021-08-21 05:28:00,,0827.9,5.01,0.00,29.6,28.6,00.0,38.8,31.4,18.4,0002.3,0021.19,0016.01,0015.40
2021-08-21 05:29:00,,0827.9,5.00,0.00,29.7,28.6,00.0,38.8,31.5,18.4,0002.3,0021.25,0016.03,0015.42
2021-08-21 05:30:00,,0827.9,5.00,0.00,29.7,28.7,00.0,38.8,31.5,18.3,0002.3,0021.24,0016.00,0015.41
2021-08-21 05:31:00,,0827.8,5.00,0.00,29.7,28.7,00.0,38.8,31.5,18.3,0002.4,0021.37,0016.03,0015.42
2021-08-21 05:32:00,,0827.9,5.00,0.00,29.7,28.8,00.0,38.8,31.5,18.5,0002.5,0021.47,0016.07,0015.45
2021-08-21 05:33:00,,0827.9,4.99,0.00,29.7,28.8,00.0,38.8,31.6,18.4,0002.5,0021.44,0016.07,0015.46
2021-08-21 05:34:00,,0827.9,5.00,0.00,29.8,28.8,00.0,38.8,31.6,18.5,0002.6,0022.02,0016.08,0015.47
2021-08-21 05:35:00,,0827.9,5.01,0.00,29.8,28.9,00.0,38.8,31.6,18.5,0002.6,0022.66,0016.16,0015.55
2021-08-21 05:36:00,,0828.0,4.99,0.00,29.8,28.9,00.0,38.9,31.6,18.4,0002.7,0022.84,0016.21,0015.60
2021-08-21 05:37:00,,0827.9,5.00,0.00,29.8,28.9,00.0,38.9,31.6,18.3,0002.7,0022.86,0016.29,0015.65
2021-08-21 05:38:00,,0828.0,5.00,0.00,29.8,28.9,00.0,38.9,31.7,18.2,0002.8,0023.21,0016.31,0015.68
2021-08-21 05:39:00,,0828.0,5.01,0.00,29.8,29.0,00.0,38.9,31.7,18.2,0002.7,0023.18,0016.32,0015.69
2021-08-21 05:40:00,,0828.0,5.00,0.00,29.8,29.0,00.0,38.9,31.7,18.0,0002.7,0023.49,0016.34,0015.69
2021-08-21 05:41:00,,0828.0,5.01,0.00,29.9,29.0,00.0,38.9,31.7,18.0,0002.7,0023.48,0016.32,0015.68
2021-08-21 05:42:00,,0828.0,4.99,0.00,29.9,29.0,00.0,38.9,31.7,18.1,0002.7,0023.34,0016.32,0015.70
2021-08-21 05:43:00,,0828.0,4.98,0.00,29.9,29.0,00.0,38.9,31.6,18.2,0002.7,0023.31,0016.32,0015.70
2021-08-21 05:44:00,,0828.0,5.01,0.00,29.9,29.0,00.0,39.0,31.7,18.2,0002.6,0023.29,0016.33,0015.71
2021-08-21 05:45:00,,0828.1,5.00,0.00,29.9,29.0,00.0,39.0,31.7,18.2,0002.6,0022.72,0016.34,0015.74
2021-08-21 05:46:00,,0828.1,5.00,0.00,29.9,29.0,00.0,39.0,31.7,18.3,0002.6,0022.36,0016.34,0015.73
2021-08-21 05:47:00,,0828.1,5.01,0.00,29.9,29.0,00.0,39.0,31.7,18.3,0002.5,0022.22,0016.38,0015.74
2021-08-21 05:48:00,,0828.1,5.01,0.00,29.9,29.0,00.0,39.0,31.7,18.5,0002.7,0022.27,0016.36,0015.73
2021-08-21 05:49:00,,0828.1,5.00,0.00,29.9,29.0,00.0,39.0,31.7,18.5,0002.9,0022.97,0016.39,0015.74
2021-08-21 05:50:00,,0828.2,5.01,0.00,29.9,29.0,00.0,39.0,31.7,18.5,0002.9,0023.55,0016.51,0015.78
2021-08-21 05:51:00,,0828.2,5.01,0.00,29.9,28.5,00.0,39.0,31.5,18.6,0003.1,0023.45,0016.53,0015.82
2021-08-21 05:52:00,,0828.1,4.99,0.00,29.7,26.5,00.0,38.9,31.0,18.8,0003.1,0023.45,0016.58,0015.85
2021-08-21 05:53:00,,0828.1,5.01,0.00,29.6,26.1,00.0,38.9,30.8,19.0,0003.0,0023.55,0016.63,0015.90
2021-08-21 05:54:00,,0828.1,5.01,0.00,29.5,26.4,00.0,38.9,30.9,19.1,0003.0,0024.50,0016.69,0015.93
2021-08-21 05:55:00,,0828.1,4.99,0.00,29.4,26.8,00.0,38.8,30.9,19.2,0003.0,0024.62,0016.73,0015.98
2021-08-21 05:56:00,,0828.2,5.00,0.00,29.4,27.2,00.0,38.8,31.0,19.3,0003.0,0024.84,0016.84,0016.03
2021-08-21 05:57:00,,0828.3,5.01,0.00,29.4,27.5,00.0,38.7,31.1,19.2,0003.1,0024.76,0016.90,0016.06
2021-08-21 05:58:00,,0828.2,4.99,0.00,29.4,27.7,00.0,38.7,31.1,19.2,0003.0,0024.73,0016.90,0016.11
2021-08-21 05:59:00,,0828.2,5.01,0.00,29.5,27.9,00.0,38.7,31.2,19.3,0002.8,0024.59,0016.94,0016.15
